| time (UTC) | temp C | wind direction | speed KPH | gust KPH | rain 1hr cm | rain 24hr cm | rain mn cm | humidity % | barometer mb |
| 20260507132121 | 12 | 235 | 4.8 | 6.4 | 0.00 | 0.61 | 0.38 | 87 | 1009.1 |
| 20260507131123 | 12 | 315 | 6.4 | 14.5 | 0.00 | 0.61 | 0.38 | 86 | 1009.2 |
| 20260507130126 | 12 | 317 | 8.0 | 12.9 | 0.00 | 0.61 | 0.38 | 88 | 1009.2 |
| 20260507125142 | 12 | 312 | 6.4 | 12.9 | 0.00 | 0.61 | 0.38 | 89 | 1009.1 |
| 20260507124121 | 11 | 323 | 4.8 | 11.3 | 0.00 | 0.61 | 0.38 | 94 | 1009.2 |
| 20260507123123 | 10 | 329 | 6.4 | 11.3 | 0.00 | 0.61 | 0.38 | 95 | 1009.1 |
| 20260507122123 | 10 | 307 | 6.4 | 11.3 | 0.00 | 0.61 | 0.38 | 95 | 1009.0 |
| 20260507121121 | 10 | 285 | 4.8 | 11.3 | 0.00 | 0.61 | 0.38 | 95 | 1008.9 |
| 20260507120129 | 10 | 302 | 4.8 | 9.7 | 0.00 | 0.61 | 0.38 | 95 | 1008.9 |
| 20260507115143 | 10 | 320 | 6.4 | 14.5 | 0.00 | 0.61 | 0.38 | 96 | 1008.7 |
| 20260507114121 | 10 | 287 | 4.8 | 9.7 | 0.00 | 0.61 | 0.38 | 98 | 1008.5 |
| 20260507113123 | 10 | 301 | 4.8 | 8.0 | 0.00 | 0.61 | 0.38 | 99 | 1008.6 |
| 20260507112121 | 10 | 321 | 3.2 | 8.0 | 0.00 | 0.61 | 0.38 | 99 | 1008.2 |
| 20260507111124 | 10 | 324 | 3.2 | 8.0 | 0.00 | 0.61 | 0.38 | 99 | 1008.2 |
| 20260507110123 | 10 | 305 | 6.4 | 9.7 | 0.00 | 0.61 | 0.38 | 99 | 1008.2 |
| 20260507105124 | 10 | 320 | 4.8 | 8.0 | 0.00 | 0.61 | 0.38 | 99 | 1008.2 |
| 20260507104125 | 9 | 315 | 6.4 | 11.3 | 0.00 | 0.61 | 0.38 | 99 | 1008.1 |
| 20260507103124 | 9 | 312 | 6.4 | 11.3 | 0.00 | 0.61 | 0.38 | 99 | 1008.0 |
| 20260507102121 | 9 | 295 | 4.8 | 11.3 | 0.00 | 0.61 | 0.38 | 99 | 1007.7 |
| 20260507101145 | 9 | 324 | 6.4 | 11.3 | 0.00 | 0.61 | 0.38 | 99 | 1007.5 |
| 20260507100147 | 9 | 306 | 6.4 | 9.7 | 0.00 | 0.61 | 0.38 | 99 | 1007.5 |
| 20260507095143 | 9 | 308 | 4.8 | 8.0 | 0.03 | 0.61 | 0.38 | 99 | 1007.5 |
| 20260507094145 | 9 | 324 | 4.8 | 9.7 | 0.03 | 0.61 | 0.38 | 99 | 1007.5 |
| 20260507093122 | 9 | 332 | 6.4 | 11.3 | 0.03 | 0.61 | 0.38 | 99 | 1007.2 |
| 20260507092121 | 9 | 312 | 4.8 | 8.0 | 0.03 | 0.61 | 0.38 | 99 | 1007.5 |
| 20260507091142 | 9 | 303 | 4.8 | 8.0 | 0.03 | 0.61 | 0.38 | 99 | 1007.4 |
| 20260507090121 | 9 | 309 | 6.4 | 12.9 | 0.03 | 0.61 | 0.38 | 99 | 1007.5 |
| 20260507085143 | 10 | 312 | 8.0 | 12.9 | 0.00 | 0.58 | 0.36 | 99 | 1007.5 |
| 20260507084125 | 10 | 331 | 8.0 | 14.5 | 0.00 | 0.58 | 0.36 | 99 | 1007.0 |
| 20260507083121 | 10 | 294 | 8.0 | 14.5 | 0.00 | 0.58 | 0.36 | 99 | 1007.2 |
| 20260507082121 | 10 | 315 | 8.0 | 14.5 | 0.00 | 0.58 | 0.36 | 99 | 1007.1 |
| 20260507081142 | 10 | 309 | 8.0 | 14.5 | 0.00 | 0.58 | 0.36 | 99 | 1007.2 |
| 20260507080122 | 10 | 352 | 6.4 | 12.9 | 0.03 | 0.58 | 0.36 | 99 | 1007.2 |
| 20260507075142 | 10 | 293 | 4.8 | 9.7 | 0.03 | 0.58 | 0.36 | 99 | 1007.4 |
| 20260507074142 | 10 | 321 | 4.8 | 12.9 | 0.10 | 0.58 | 0.36 | 99 | 1007.5 |
| 20260507073121 | 10 | 312 | 8.0 | 14.5 | 0.18 | 0.58 | 0.36 | 99 | 1007.2 |
| 20260507072142 | 10 | 320 | 6.4 | 14.5 | 0.25 | 0.58 | 0.36 | 99 | 1007.2 |
| 20260507071121 | 11 | 302 | 4.8 | 9.7 | 0.33 | 0.58 | 0.36 | 99 | 1007.1 |
| 20260507070125 | 11 | 296 | 6.4 | 11.3 | 0.33 | 0.56 | 0.33 | 99 | 1006.5 |
| 20260507065121 | 11 | 322 | 4.8 | 8.0 | 0.33 | 0.56 | 0.33 | 99 | 1006.5 |
| 20260507064124 | 11 | 321 | 4.8 | 9.7 | 0.25 | 0.48 | 0.25 | 99 | 1007.2 |
| 20260507063145 | 11 | 302 | 4.8 | 11.3 | 0.18 | 0.41 | 0.18 | 99 | 1006.8 |
| 20260507062121 | 11 | 273 | 4.8 | 8.0 | 0.10 | 0.33 | 0.10 | 99 | 1006.2 |
| 20260507061122 | 12 | 280 | 4.8 | 8.0 | 0.03 | 0.25 | 0.03 | 99 | 1006.8 |
| 20260507060122 | 12 | 292 | 4.8 | 11.3 | 0.00 | 0.23 | 0.00 | 97 | 1006.8 |
| 20260507055143 | 13 | 282 | 4.8 | 11.3 | 0.00 | 0.23 | 0.00 | 97 | 1006.8 |
| 20260507054123 | 13 | 310 | 3.2 | 6.4 | 0.00 | 0.23 | 0.00 | 99 | 1006.4 |
| 20260507053123 | 13 | 8 | 3.2 | 6.4 | 0.00 | 0.23 | 0.00 | 99 | 1006.2 |
| 20260507052121 | 13 | 303 | 3.2 | 9.7 | 0.00 | 0.23 | 0.00 | 99 | 1006.4 |
| 20260507051121 | 13 | 285 | 3.2 | 6.4 | 0.00 | 0.23 | 0.00 | 99 | 1006.5 |
| 20260507050142 | 13 | 281 | 3.2 | 8.0 | 0.00 | 0.23 | 0.00 | 99 | 1006.4 |
| 20260507045121 | 13 | 284 | 3.2 | 6.4 | 0.00 | 0.23 | 0.00 | 99 | 1006.4 |
| 20260507044142 | 13 | 285 | 3.2 | 6.4 | 0.00 | 0.23 | 0.00 | 99 | 1006.7 |
| 20260507043125 | 13 | 295 | 3.2 | 4.8 | 0.00 | 0.23 | 0.00 | 99 | 1007.0 |
| 20260507042123 | 13 | 294 | 3.2 | 6.4 | 0.00 | 0.23 | 0.00 | 99 | 1006.8 |
| 20260507041124 | 13 | 281 | 3.2 | 4.8 | 0.00 | 0.23 | 0.00 | 99 | 1006.9 |
| 20260507040121 | 13 | 295 | 3.2 | 9.7 | 0.00 | 0.23 | 0.00 | 99 | 1006.7 |
| 20260507035121 | 13 | 320 | 3.2 | 4.8 | 0.03 | 0.23 | 0.23 | 99 | 1006.7 |
| 20260507034145 | 13 | 288 | 4.8 | 8.0 | 0.03 | 0.23 | 0.23 | 99 | 1006.7 |
| 20260507033121 | 13 | 299 | 3.2 | 8.0 | 0.03 | 0.23 | 0.23 | 99 | 1006.6 |
| 20260507032142 | 13 | 280 | 6.4 | 11.3 | 0.03 | 0.23 | 0.23 | 99 | 1006.4 |
| 20260507031121 | 13 | 320 | 6.4 | 9.7 | 0.05 | 0.23 | 0.23 | 99 | 1006.5 |
| 20260507030143 | 14 | 334 | 6.4 | 9.7 | 0.08 | 0.23 | 0.23 | 99 | 1006.5 |
| 20260507025123 | 14 | 0 | 1.6 | 4.8 | 0.05 | 0.20 | 0.20 | 99 | 1006.6 |
| 20260507024121 | 14 | 203 | 0.0 | 0.0 | 0.05 | 0.20 | 0.20 | 99 | 1006.6 |
| 20260507023122 | 14 | 338 | 0.0 | 0.0 | 0.10 | 0.20 | 0.20 | 99 | 1006.8 |
| 20260507022123 | 14 | 265 | 3.2 | 6.4 | 0.10 | 0.20 | 0.20 | 99 | 1006.6 |
| 20260507021123 | 14 | 95 | 1.6 | 6.4 | 0.08 | 0.18 | 0.18 | 99 | 1006.0 |
| 20260507020122 | 14 | 96 | 0.0 | 3.2 | 0.05 | 0.15 | 0.15 | 99 | 1006.0 |
| 20260507015143 | 14 | 158 | 0.0 | 0.0 | 0.05 | 0.15 | 0.15 | 99 | 1006.4 |
| 20260507014122 | 14 | 207 | 1.6 | 3.2 | 0.05 | 0.15 | 0.15 | 99 | 1006.6 |
| 20260507013143 | 14 | 220 | 1.6 | 3.2 | 0.00 | 0.10 | 0.10 | 99 | 1006.2 |
| 20260507012142 | 14 | 213 | 0.0 | 3.2 | 0.00 | 0.10 | 0.10 | 99 | 1006.1 |
| 20260507011143 | 14 | 196 | 0.0 | 3.2 | 0.00 | 0.10 | 0.10 | 99 | 1006.2 |
| 20260507010121 | 14 | 212 | 1.6 | 3.2 | 0.00 | 0.10 | 0.10 | 99 | 1006.2 |
| 20260507005121 | 14 | 225 | 1.6 | 4.8 | 0.00 | 0.10 | 0.10 | 99 | 1006.2 |
| 20260507004142 | 15 | 263 | 1.6 | 3.2 | 0.00 | 0.10 | 0.10 | 99 | 1006.0 |
| 20260507003144 | 15 | 177 | 1.6 | 4.8 | 0.00 | 0.10 | 0.10 | 99 | 1006.2 |
| 20260507002121 | 15 | 195 | 1.6 | 3.2 | 0.00 | 0.10 | 0.10 | 99 | 1006.2 |
| 20260507001123 | 15 | 166 | 0.0 | 3.2 | 0.00 | 0.10 | 0.10 | 99 | 1006.2 |
| 20260507000121 | 15 | 241 | 1.6 | 4.8 | 0.00 | 0.10 | 0.10 | 99 | 1006.0 |
| 20260506235123 | 15 | 251 | 1.6 | 3.2 | 0.00 | 0.10 | 0.10 | 99 | 1006.0 |
| 20260506234145 | 15 | 182 | 1.6 | 4.8 | 0.00 | 0.10 | 0.10 | 99 | 1005.8 |
| 20260506233121 | 15 | 223 | 1.6 | 4.8 | 0.00 | 0.10 | 0.10 | 99 | 1006.0 |
| 20260506232142 | 15 | 200 | 1.6 | 4.8 | 0.00 | 0.10 | 0.10 | 99 | 1005.9 |
| 20260506231124 | 15 | 263 | 1.6 | 4.8 | 0.00 | 0.10 | 0.10 | 99 | 1005.8 |
| 20260506230121 | 15 | 250 | 3.2 | 6.4 | 0.00 | 0.10 | 0.10 | 99 | 1005.7 |
| 20260506225121 | 15 | 275 | 3.2 | 4.8 | 0.00 | 0.10 | 0.10 | 99 | 1005.7 |
| 20260506224144 | 15 | 255 | 3.2 | 4.8 | 0.00 | 0.10 | 0.10 | 99 | 1005.7 |
| 20260506223122 | 14 | 277 | 3.2 | 6.4 | 0.00 | 0.10 | 0.10 | 99 | 1005.6 |
| 20260506222122 | 15 | 234 | 4.8 | 6.4 | 0.00 | 0.10 | 0.10 | 99 | 1005.7 |
| 20260506221122 | 15 | 235 | 3.2 | 6.4 | 0.00 | 0.10 | 0.10 | 99 | 1005.7 |
| 20260506220122 | 15 | 242 | 4.8 | 8.0 | 0.00 | 0.10 | 0.10 | 99 | 1005.6 |
| 20260506215124 | 15 | 247 | 3.2 | 8.0 | 0.00 | 0.10 | 0.10 | 99 | 1005.6 |
| 20260506214123 | 15 | 237 | 3.2 | 6.4 | 0.00 | 0.10 | 0.10 | 99 | 1005.2 |
| 20260506213122 | 15 | 241 | 3.2 | 6.4 | 0.00 | 0.10 | 0.10 | 99 | 1005.2 |
| 20260506212124 | 15 | 236 | 4.8 | 8.0 | 0.00 | 0.10 | 0.10 | 99 | 1005.1 |
| 20260506211122 | 15 | 237 | 1.6 | 8.0 | 0.00 | 0.10 | 0.10 | 99 | 1005.0 |
| 20260506210121 | 15 | 258 | 1.6 | 4.8 | 0.00 | 0.10 | 0.10 | 99 | 1005.0 |
| 20260506205121 | 15 | 222 | 3.2 | 4.8 | 0.00 | 0.10 | 0.10 | 99 | 1005.0 |
| 20260506204121 | 15 | 253 | 3.2 | 8.0 | 0.00 | 0.10 | 0.10 | 99 | 1005.2 |
| 20260506203121 | 14 | 255 | 1.6 | 4.8 | 0.03 | 0.10 | 0.10 | 99 | 1005.2 |
| 20260506202145 | 14 | 203 | 3.2 | 6.4 | 0.05 | 0.10 | 0.10 | 99 | 1005.4 |
| 20260506201124 | 14 | 223 | 3.2 | 4.8 | 0.05 | 0.10 | 0.10 | 99 | 1005.7 |
| 20260506200121 | 14 | 224 | 3.2 | 6.4 | 0.05 | 0.10 | 0.10 | 99 | 1005.7 |
| 20260506195121 | 14 | 262 | 3.2 | 9.7 | 0.05 | 0.10 | 0.10 | 99 | 1005.7 |
| 20260506194123 | 14 | 259 | 4.8 | 8.0 | 0.05 | 0.10 | 0.10 | 99 | 1005.8 |
| 20260506193121 | 14 | 249 | 4.8 | 9.7 | 0.03 | 0.08 | 0.08 | 99 | 1006.1 |
| 20260506192121 | 14 | 247 | 8.0 | 19.3 | 0.00 | 0.05 | 0.05 | 99 | 1006.0 |
| 20260506191121 | 15 | 256 | 8.0 | 17.7 | 0.00 | 0.05 | 0.05 | 99 | 1005.9 |
| 20260506190146 | 15 | 253 | 8.0 | 16.1 | 0.00 | 0.05 | 0.05 | 99 | 1005.9 |
| 20260506185145 | 15 | 212 | 6.4 | 12.9 | 0.00 | 0.05 | 0.05 | 99 | 1005.7 |
| 20260506184124 | 15 | 168 | 4.8 | 6.4 | 0.00 | 0.05 | 0.05 | 99 | 1005.9 |
| 20260506183123 | 15 | 225 | 4.8 | 9.7 | 0.00 | 0.05 | 0.05 | 99 | 1006.2 |
| 20260506182127 | 15 | 220 | 4.8 | 8.0 | 0.03 | 0.05 | 0.05 | 99 | 1006.5 |
| 20260506181122 | 15 | 249 | 6.4 | 9.7 | 0.03 | 0.05 | 0.05 | 99 | 1006.4 |
| 20260506180146 | 15 | 215 | 4.8 | 8.0 | 0.03 | 0.05 | 0.05 | 99 | 1006.4 |
| 20260506175122 | 15 | 266 | 4.8 | 8.0 | 0.05 | 0.05 | 0.05 | 99 | 1006.4 |
| 20260506174123 | 15 | 252 | 4.8 | 9.7 | 0.05 | 0.05 | 0.05 | 99 | 1006.7 |
| 20260506173122 | 15 | 221 | 4.8 | 8.0 | 0.05 | 0.05 | 0.05 | 99 | 1006.7 |
| 20260506172122 | 15 | 235 | 6.4 | 12.9 | 0.03 | 0.03 | 0.03 | 99 | 1007.2 |
| 20260506171122 | 15 | 246 | 3.2 | 8.0 | 0.03 | 0.03 | 0.03 | 99 | 1007.4 |
| 20260506170121 | 15 | 231 | 4.8 | 14.5 | 0.03 | 0.03 | 0.03 | 99 | 1007.5 |
| 20260506165121 | 15 | 238 | 6.4 | 11.3 | 0.00 | 0.00 | 0.00 | 99 | 1007.5 |
| 20260506164143 | 15 | 205 | 4.8 | 11.3 | 0.00 | 0.00 | 0.00 | 97 | 1007.9 |
| 20260506163121 | 16 | 252 | 4.8 | 14.5 | 0.00 | 0.00 | 0.00 | 91 | 1008.0 |
| 20260506162121 | 16 | 241 | 6.4 | 12.9 | 0.00 | 0.00 | 0.00 | 89 | 1008.0 |
| 20260506161121 | 17 | 258 | 8.0 | 12.9 | 0.00 | 0.00 | 0.00 | 89 | 1008.1 |
| 20260506160121 | 17 | 241 | 6.4 | 11.3 | 0.00 | 0.00 | 0.00 | 87 | 1007.8 |
| 20260506155121 | 17 | 251 | 8.0 | 12.9 | 0.00 | 0.00 | 0.00 | 90 | 1007.8 |
| 20260506154121 | 16 | 235 | 8.0 | 16.1 | 0.00 | 0.00 | 0.00 | 90 | 1008.0 |
| 20260506153123 | 17 | 235 | 8.0 | 16.1 | 0.00 | 0.00 | 0.00 | 88 | 1008.2 |
| 20260506152122 | 18 | 267 | 6.4 | 14.5 | 0.00 | 0.00 | 0.00 | 87 | 1008.2 |
| 20260506151142 | 18 | 268 | 8.0 | 14.5 | 0.00 | 0.00 | 0.00 | 86 | 1008.4 |
| 20260506150121 | 18 | 220 | 8.0 | 14.5 | 0.00 | 0.00 | 0.00 | 84 | 1008.1 |
| 20260506145122 | 18 | 225 | 4.8 | 9.7 | 0.00 | 0.00 | 0.00 | 85 | 1008.1 |
| 20260506144122 | 17 | 193 | 4.8 | 11.3 | 0.00 | 0.00 | 0.00 | 88 | 1008.1 |
| 20260506143122 | 17 | 184 | 4.8 | 8.0 | 0.00 | 0.00 | 0.00 | 89 | 1007.9 |
| 20260506142122 | 17 | 269 | 6.4 | 9.7 | 0.00 | 0.00 | 0.00 | 88 | 1008.1 |
| 20260506141123 | 17 | 227 | 6.4 | 12.9 | 0.00 | 0.00 | 0.00 | 88 | 1008.2 |
| 20260506140122 | 17 | 222 | 6.4 | 9.7 | 0.00 | 0.00 | 0.00 | 87 | 1008.2 |
| 20260506135123 | 18 | 231 | 4.8 | 9.7 | 0.00 | 0.00 | 0.00 | 86 | 1008.2 |
| 20260506134144 | 18 | 235 | 8.0 | 11.3 | 0.00 | 0.00 | 0.00 | 86 | 1008.4 |
| 20260506133143 | 18 | 215 | 8.0 | 12.9 | 0.00 | 0.00 | 0.00 | 86 | 1008.4 |